Regional Weather Roundup
Issued by NWS

Home | Current Version | Previous Version | Graphics & Text | Print | Product List | Glossary On
Versions: 1 2 3 4 5 6 7 8 9 10 11 12 13 14 15 16 17 18 19 20 21 22 23 24 25 26 27 28 29 30 31 32 33 34 35 36 37 38 39 40 41 42 43 44 45 46 47 48 49 50
554
ASUS45 KSLC 231010
RWRUT

UTAH REGIONAL WEATHER ROUNDUP
NATIONAL WEATHER SERVICE SALT LAKE CITY UT
400 AM MDT MON OCT 23 2017

UTZ001>011-023>025-231100-

NORTHERN UTAH

CITY           SKY/WX    TMP DP  RH WIND       PRES   REMARKS
BRIGHAM CITY   PTCLDY    53  37  54 N3        30.48R
HILL AFB       PTCLDY    53  36  53 N12       30.48R
LOGAN          MOCLDY    54  39  57 N12       30.48R
OGDEN          PTCLDY    51  37  58 NW7       30.47R
SALT LAKE CITY PTCLDY    50  36  58 CALM      30.47R
TOOELE VALLEY  PTCLDY    37  32  81 CALM      30.48R
WENDOVER       PTCLDY    51  34  52 SE9       30.46R
WEST JORDAN    PTCLDY    48  34  58 CALM      30.48R

$$

UTZ011>015-024>027-231100-

CENTRAL/NORTHEAST UTAH

CITY           SKY/WX    TMP DP  RH WIND       PRES   REMARKS
PROVO AIRPORT  PTCLDY    41  29  62 S3        30.46R
MOAB/CANYONLAN CLEAR     38  15  39 E3        30.39R
DELTA          PTCLDY    37  27  65 SE5       30.44S WCI  34
PRICE          CLEAR     39  18  42 N7        30.44R WCI  34
ROOSEVELT      CLOUDY    41  27  56 N5        30.42R
VERNAL         CLOUDY    41  27  57 W7        30.39F

$$

UTZ013>016-019>022-027-231100-

SOUTHERN UTAH

CITY           SKY/WX    TMP DP  RH WIND       PRES   REMARKS
BRYCE CANYON   PTCLDY    30  17  58 W6        30.54S WCI  24
CEDAR CITY     PTCLDY    41  21  44 NE3       30.45R
MILFORD        CLEAR     37  18  46 CALM      30.45S
ST GEORGE      MOSUNNY   51  24  34 CALM      30.35R
HANKSVILLE     CLEAR     34  18  51 CALM      30.43R
BLANDING         N/A     41  20  42 NW3       30.49S

$$

REGIONAL REPORTS     COLORADO/ARIZONA

CITY           SKY/WX    TMP DP  RH WIND       PRES   REMARKS
CRAIG, CO      CLOUDY    46  31  55 N5        30.41F
GRAND JUNCTION CLOUDY    42  25  50 SE10      30.41S
RIFLE, CO      CLOUDY    40  30  67 VRB3      30.46S
MONTROSE, CO   CLOUDY    35  23  61 SE8       30.48R WCI  29
CORTEZ, CO     CLOUDY    33  21  61 NE8       30.43S WCI  26
COLORADO CITY    N/A     34  21  60 SE5       30.44S WCI  30
PAGE, AZ       CLEAR     54  22  28 SW5       30.37F
GRAND CANYON   PTCLDY    26  11  52 NE3       30.48F
KINGMAN, AZ    CLEAR     54  26  34 E9        30.30S
FLAGSTAFF, AZ  PTCLDY    28  13  53 CALM      30.48F

$$

REGIONAL REPORTS    NEVADA/IDAHO/WYOMING

CITY           SKY/WX    TMP DP  RH WIND       PRES   REMARKS
LAS VEGAS, NV  CLEAR     63  27  25 CALM      30.27R
ELY, NY        CLEAR     33  16  49 S7        30.54F WCI  27
ELKO, NV       CLEAR     38  29  70 E3        30.53R
POCATELLO, ID  CLOUDY    45  42  89 SW15      30.48R
BURLEY, ID     PTCLDY    47  42  83 W13       30.49R
FORT BRIDGER,    N/A     46  32  58 W13       30.49S
EVANSTON, WY   CLOUDY    45  32  60 W18       30.50R
ROCK SPRINGS,  CLOUDY    46  30  53 W28G35    30.39S
KEMMERER, WY   CLOUDY    43  32  65 W28G36    30.43S

$$




USA.gov is the U.S. government's official web portal to all federal, state and local government web resources and services.